Regional Weather Roundup
Issued by NWS

Current Version | Previous Version | Text Only | Print | Product List | Glossary On
Versions: 1 2 3 4 5 6 7 8 9 10 11 12 13 14 15 16 17 18 19 20 21 22 23 24 25 26 27
000
ASPQ40 PGUM 081212
RWRPQ
WEATHER ROUNDUP FOR THE MARIANAS AND MICRONESIA
NATIONAL WEATHER SERVICE TIYAN GU
1000 PM CHST THU DEC 08 2016

GUZ001>004-081300-
MARIANA ISLANDS-

CITY           SKY/WX    TMP DP  RH WIND       PRES   REMARKS
GUAM AIRPORT   MOCLDY    82  73  74 E9        29.87R
ANDERSEN AFB   PTCLDY    79  73  83 E13       29.89R
ROTA AIRPORT   NOT AVBL
TINIAN AP      NOT AVBL
SAIPAN AP      PTCLDY    81  73  78 E9        29.88S

$$

PMZ161-081300-
REPUBLIC OF PALAU-

CITY           SKY/WX    TMP DP  RH WIND       PRES   REMARKS
KOROR AP       MOCLDY    81  79  94 E5        29.78R
KOROR WSO      MOCLDY    82  77  83 SE6       29.79S HX  91

$$

PMZ171>174-081300-
FEDERATED STATES OF MICRONESIA-

CITY           SKY/WX    TMP DP  RH WIND       PRES   REMARKS
YAP AIRPORT    PTCLDY    81  77  89 VRB6      29.79R
CHUUK AP       CLOUDY    82  79  89 NE9       29.78S HX  93
POHNPEI AP     NOT AVBL
POHNPEI WSO    CLOUDY    77  75  94 CALM      29.80F
KOSRAE AP      NOT AVBL

$$

PMZ181-081300-
REPUBLIC OF THE MARSHALL ISLANDS-

CITY           SKY/WX    TMP DP  RH WIND       PRES   REMARKS
KWAJALEIN AP   PTCLDY    81  70  69 NE16      29.78S
MAJURO AP      NOT AVBL
MAJURO WSO     PTCLDY    82  75  78 NE12      29.75R

$$





USA.gov is the U.S. government's official web portal to all federal, state and local government web resources and services.